Overview Statistics Trail Chart Weather Telemetry Raw packets
 

This is the latest recevied weather packets stored in our database for station/object WL7CLI. If no packets are shown the sender has not sent any weather packets the latest 10 day(s).

<< 31 32 33 34 35 36 37 >>
Time Temp. Humidity Pressure Rain* Wind** Luminosity Snow
1788405184 30° C 66% 1009.4 hPa 0 mm - - -
1788405030 30° C 66% 1009.4 hPa 0 mm - - -
1788404636 30.56° C 64% 1009.4 hPa 0 mm - - -
1788404290 30° C 65% 1011.5 hPa 0 mm - - -
1788404101 30° C 65% 1009.3 hPa 0 mm - - -
1788403829 30.56° C 64% 1009.4 hPa 0 mm - - -
1788402930 31.11° C 62% 1009.2 hPa 0 mm - - -
1788402903 30.56° C 63% 1009.3 hPa 0 mm - - -
1788402629 31.11° C 62% 1009.2 hPa 0 mm - - -
1788402490 31.11° C 62% 1011.3 hPa 0 mm - - -
1788401702 31.11° C 62% 1009.2 hPa 0 mm - - -
1788401696 31.11° C 62% 1009.2 hPa 0 mm - - -
1788401428 31.11° C 62% 1009.2 hPa 0 mm - - -
1788400690 31.11° C 63% 1011.1 hPa 0 mm - - -
1788400502 31.11° C 63% 1009 hPa 0 mm - - -
1788400477 31.11° C 63% 1008.9 hPa 0 mm - - -
1788400229 31.11° C 63% 1008.9 hPa 0 mm - - -
1788399302 31.67° C 63% 1008.8 hPa 0 mm - - -
1788399295 31.67° C 64% 1008.8 hPa 0 mm - - -
1788399030 31.67° C 64% 1008.8 hPa 0 mm - - -
1788398890 31.67° C 63% 1010.7 hPa 0 mm - - -
1788398102 31.67° C 63% 1008.6 hPa 0 mm - - -
1788397089 32.22° C 61% 1010.7 hPa 0 mm - - -
1788396902 32.22° C 61% 1008.6 hPa 0 mm - - -
1788396841 32.22° C 60% 1008.6 hPa 0 mm - - -

* Rain latest hour (hover to see other rain measurements)
** Current wind speed in m/s (hover to see current wind gust speed)